FW7370 Weather Reports


time (UTC)temp
C
wind
direction
speed
KPH
gust
KPH
rain 1hr
cm
rain 24hr
cm
rain mn
cm
humidity
%
barometer
mb
20240715214613 28 21 12.9 20.9 0.00 0.00 0.00 78 1023.9
20240715214112 28 37 8.0 19.3 0.00 0.00 0.00 79 1023.8
20240715213612 28 15 11.3 19.3 0.00 0.00 0.00 79 1024.1
20240715213111 28 83 8.0 20.9 0.00 0.00 0.00 78 1024.1
20240715212611 28 72 9.7 24.1 0.00 0.00 0.00 78 1023.9
20240715212110 28 21 11.3 24.1 0.00 0.00 0.00 78 1024.0
20240715211054 28 19 12.9 27.4 0.00 0.00 0.00 78 1024.0
20240715210554 28 17 16.1 20.9 0.00 0.00 0.00 78 1023.8
20240715210053 28 31 11.3 25.7 0.00 0.00 0.00 78 1023.6
20240715205554 28 7 14.5 25.7 0.00 0.00 0.00 78 1023.7
20240715205053 28 14 12.9 25.7 0.00 0.00 0.00 79 1023.8
20240715204553 28 27 9.7 22.5 0.00 0.00 0.00 78 1024.1
20240715204053 28 17 11.3 24.1 0.00 0.00 0.00 78 1023.6
20240715203554 28 17 11.3 24.1 0.00 0.00 0.00 77 1024.0
20240715203053 28 14 14.5 22.5 0.00 0.00 0.00 77 1023.6
20240715201524 28 7 11.3 22.5 0.00 0.00 0.00 78 1023.7
20240715200508 28 34 8.0 24.1 0.00 0.00 0.00 77 1023.6
20240715200008 28 16 16.1 24.1 0.00 0.00 0.00 75 1023.8
20240715195507 29 11 12.9 24.1 0.00 0.00 0.00 75 1023.6
20240715195007 28 12 11.3 19.3 0.00 0.00 0.00 75 1023.8
20240715193952 28 32 9.7 24.1 0.00 0.00 0.00 76 1023.9
20240715193451 28 34 6.4 22.5 0.00 0.00 0.00 77 1024.2
20240715192951 28 6 11.3 22.5 0.00 0.00 0.00 78 1023.8
20240715192451 28 11 14.5 22.5 0.00 0.00 0.00 78 1023.6
20240715191950 28 10 12.9 24.1 0.00 0.00 0.00 77 1023.8
20240715190933 28 12 12.9 25.7 0.00 0.00 0.00 79 1023.6
20240715190432 28 10 16.1 25.7 0.00 0.00 0.00 77 1023.6
20240715185932 28 29 11.3 24.1 0.00 0.00 0.00 78 1023.7
20240715185432 28 15 11.3 24.1 0.00 0.00 0.00 78 1024.0
20240715184930 28 13 12.9 24.1 0.00 0.00 0.00 77 1023.9
20240715183915 28 25 12.9 22.5 0.00 0.00 0.00 77 1023.8
20240715182900 28 33 8.0 24.1 0.00 0.00 0.00 77 1024.4
20240715182359 28 10 11.3 24.1 0.00 0.00 0.00 77 1024.3
20240715181858 28 11 11.3 24.1 0.00 0.00 0.00 76 1024.5
20240715181358 28 26 9.7 25.7 0.00 0.00 0.00 76 1024.1
20240715180857 28 19 9.7 25.7 0.00 0.00 0.00 76 1024.3
20240715180357 29 21 11.3 20.9 0.00 0.00 0.00 75 1024.5
20240715175856 29 50 8.0 22.5 0.00 0.00 0.00 77 1024.5
20240715175356 29 69 9.7 22.5 0.00 0.00 0.00 76 1024.6
20240715174855 29 49 8.0 22.5 0.00 0.00 0.00 76 1024.8
20240715173324 29 90 6.4 19.3 0.00 0.00 0.00 75 1024.8
20240715172823 29 97 11.3 19.3 0.00 0.00 0.00 75 1024.9
20240715172323 30 91 8.0 19.3 0.00 0.00 0.00 75 1024.8
20240715171822 30 107 11.3 20.9 0.00 0.00 0.00 74 1025.0
20240715171322 30 63 8.0 20.9 0.00 0.00 0.00 73 1024.8
20240715170821 30 65 8.0 19.3 0.00 0.00 0.00 74 1025.2
20240715165805 30 68 8.0 19.3 0.00 0.00 0.00 74 1024.9
20240715164749 30 58 6.4 19.3 0.00 0.00 0.00 74 1025.1
20240715163733 30 79 8.0 19.3 0.00 0.00 0.00 72 1025.2
20240715163232 30 94 6.4 19.3 0.00 0.00 0.00 72 1025.2
20240715162732 29 105 9.7 19.3 0.00 0.00 0.00 73 1025.1
20240715162231 29 76 6.4 19.3 0.00 0.00 0.00 75 1024.9
20240715161215 29 115 14.5 20.9 0.00 0.00 0.00 73 1025.1
20240715160715 29 120 11.3 20.9 0.00 0.00 0.00 75 1025.1
20240715160214 29 87 8.0 20.9 0.00 0.00 0.00 76 1025.2
20240715155714 30 97 11.3 19.3 0.00 0.00 0.00 75 1025.6
20240715155213 30 86 11.3 19.3 0.00 0.00 0.00 74 1025.5
20240715154713 29 109 8.0 25.7 0.00 0.00 0.00 75 1025.6
20240715154212 29 108 16.1 25.7 0.00 0.00 0.00 75 1025.3
20240715153712 29 121 12.9 24.1 0.00 0.00 0.00 75 1025.0
20240715153211 29 111 11.3 22.5 0.00 0.00 0.00 76 1025.3
20240715152711 29 120 12.9 22.5 0.00 0.00 0.00 76 1025.2
20240715152211 30 112 9.7 24.1 0.00 0.00 0.00 74 1025.5
20240715151711 29 106 11.3 24.1 0.00 0.00 0.00 74 1025.4
20240715151210 30 104 11.3 24.1 0.00 0.00 0.00 74 1025.5
20240715150710 30 125 12.9 22.5 0.00 0.00 0.00 73 1025.5
20240715150209 30 128 14.5 22.5 0.00 0.00 0.00 72 1025.4
20240715144638 30 102 12.9 22.5 0.00 0.00 0.00 74 1025.5
20240715144137 30 121 12.9 22.5 0.00 0.00 0.00 72 1025.5
20240715143637 30 96 11.3 25.7 0.00 0.00 0.00 74 1025.6
20240715143136 30 126 16.1 25.7 0.00 0.00 0.00 73 1025.1
20240715142636 30 128 16.1 22.5 0.00 0.00 0.00 73 1025.5
20240715142135 30 85 8.0 22.5 0.00 0.00 0.00 72 1025.4
20240715141635 30 122 11.3 20.9 0.00 0.00 0.00 72 1025.5
20240715135548 30 132 11.3 22.5 0.00 0.00 0.00 71 1025.5
20240715135047 30 109 11.3 20.9 0.00 0.00 0.00 74 1025.6
20240715134547 30 132 8.0 20.9 0.00 0.00 0.00 73 1025.5
20240715134047 29 117 9.7 20.9 0.00 0.00 0.00 73 1025.6
20240715133546 29 109 8.0 20.9 0.00 0.00 0.00 75 1025.4
20240715132014 29 126 9.7 22.5 0.00 0.00 0.00 76 1025.5
20240715131514 29 126 14.5 22.5 0.00 0.00 0.00 76 1025.3
20240715131013 28 119 14.5 20.9 0.00 0.00 0.00 77 1025.7
20240715130513 28 120 9.7 20.9 0.00 0.00 0.00 78 1025.4
20240715130012 28 138 9.7 20.9 0.00 0.00 0.00 78 1025.5
20240715125512 28 114 12.9 20.9 0.00 0.00 0.00 78 1025.5
20240715125011 28 104 9.7 19.3 0.00 0.00 0.00 78 1025.5
20240715124511 28 105 9.7 20.9 0.00 0.00 0.00 79 1025.5
20240715124011 28 118 12.9 20.9 0.00 0.00 0.00 78 1025.5
20240715123511 28 110 8.0 22.5 0.00 0.00 0.00 78 1025.4
20240715122455 28 65 9.7 20.9 0.00 0.00 0.00 78 1025.4
20240715120924 27 129 9.7 17.7 0.00 0.00 0.00 81 1025.4
20240715114837 28 58 3.2 17.7 0.00 0.00 0.00 80 1025.1
20240715114336 28 63 4.8 17.7 0.00 0.00 0.00 79 1025.1
20240715113836 28 119 6.4 17.7 0.00 0.00 0.00 79 1025.0
20240715112820 28 78 6.4 17.7 0.00 0.00 0.00 78 1025.1
20240715112320 28 22 8.0 17.7 0.00 0.00 0.00 79 1024.9
20240715110748 28 77 8.0 17.7 0.00 0.00 0.00 80 1024.9
20240715105732 27 74 8.0 17.7 0.00 0.00 0.00 81 1024.8
20240715105232 27 26 8.0 17.7 0.00 0.00 0.00 81 1024.7
20240715104732 27 30 6.4 17.7 0.00 0.00 0.00 81 1024.7
20240715104231 27 48 6.4 17.7 0.00 0.00 0.00 82 1024.7
20240715103731 27 69 4.8 17.7 0.00 0.00 0.00 82 1024.7
20240715103230 27 80 4.8 17.7 0.00 0.00 0.00 82 1024.4
20240715102730 27 83 6.4 17.7 0.00 0.00 0.00 82 1024.4
20240715102230 27 55 4.8 17.7 0.00 0.00 0.00 83 1024.7
20240715101214 27 71 3.2 17.7 0.00 0.00 0.00 83 1024.2
20240715100713 26 50 4.8 17.7 0.00 0.00 0.00 83 1024.2
20240715100213 26 94 4.8 17.7 0.00 0.00 0.00 83 1024.2
20240715095157 26 88 4.8 17.7 0.00 0.00 0.00 84 1024.2
20240715094656 26 70 4.8 17.7 0.00 0.00 0.00 84 1023.9
20240715094156 26 69 6.4 17.7 0.00 0.00 0.00 84 1024.1
20240715093655 26 74 4.8 17.7 0.00 0.00 0.00 84 1024.3
20240715092639 26 75 6.4 17.7 0.00 0.00 0.00 85 1024.0
20240715092139 26 54 6.4 17.7 0.00 0.00 0.00 84 1023.9
20240715091123 26 75 8.0 17.7 0.00 0.00 0.00 84 1023.5
20240715090622 26 70 3.2 17.7 0.00 0.00 0.00 84 1023.5
20240715090123 26 72 4.8 17.7 0.00 0.00 0.00 84 1023.5
20240715085621 26 45 8.0 17.7 0.00 0.00 0.00 84 1023.6
20240715085120 26 73 4.8 17.7 0.00 0.00 0.00 84 1023.6
20240715084620 26 71 8.0 17.7 0.00 0.00 0.00 85 1023.7
20240715084119 26 79 4.8 17.7 0.00 0.00 0.00 85 1023.3
20240715083619 26 53 8.0 17.7 0.00 0.00 0.00 85 1023.5
20240715083118 26 52 6.4 17.7 0.00 0.00 0.00 85 1023.6
20240715082618 26 86 4.8 17.7 0.00 0.00 0.00 84 1023.3
20240715082117 26 80 4.8 17.7 0.00 0.00 0.00 84 1023.4
20240715081617 26 69 6.4 17.7 0.00 0.00 0.00 84 1023.3
20240715081116 26 58 6.4 17.7 0.00 0.00 0.00 84 1023.3
20240715080100 26 39 6.4 17.7 0.00 0.00 0.00 84 1023.4
20240715075044 26 57 3.2 17.7 0.00 0.00 0.00 84 1023.3
20240715074543 26 74 8.0 17.7 0.00 0.00 0.00 84 1023.5
20240715074043 26 61 4.8 17.7 0.00 0.00 0.00 84 1023.4
20240715073542 26 67 4.8 17.7 0.00 0.00 0.00 84 1023.3
20240715073042 26 73 6.4 17.7 0.00 0.00 0.00 84 1023.3
20240715072542 26 56 4.8 17.7 0.00 0.00 0.00 84 1023.6
20240715072041 26 70 8.0 17.7 0.00 0.00 0.00 84 1023.6
20240715071025 26 56 6.4 17.7 0.00 0.00 0.00 83 1023.4
20240715065454 26 36 8.0 17.7 0.00 0.00 0.00 83 1023.4
20240715064954 26 64 6.4 17.7 0.00 0.00 0.00 83 1023.4
20240715064451 27 89 4.8 17.7 0.00 0.00 0.00 83 1023.9
20240715063950 27 55 8.0 19.3 0.00 0.00 0.00 83 1023.6
20240715063449 27 62 4.8 19.3 0.00 0.00 0.00 83 1023.5
20240715062949 27 50 9.7 19.3 0.00 0.00 0.00 83 1023.6
20240715062448 27 44 8.0 19.3 0.00 0.00 0.00 83 1023.4
20240715061432 27 54 9.7 19.3 0.00 0.00 0.00 82 1023.6
20240715060933 27 57 6.4 22.5 0.00 0.00 0.00 82 1023.6
20240715060431 27 49 6.4 22.5 0.00 0.00 0.00 82 1023.6
20240715055932 27 33 11.3 22.5 0.00 0.00 0.00 82 1023.7
20240715055431 27 47 8.0 22.5 0.00 0.00 0.00 82 1023.9
20240715054931 27 40 8.0 22.5 0.00 0.00 0.00 82 1024.0
20240715054430 27 58 6.4 22.5 0.00 0.00 0.00 82 1023.7
20240715053930 27 62 6.4 22.5 0.00 0.00 0.00 82 1023.8
20240715053429 27 44 8.0 22.5 0.00 0.00 0.00 82 1023.8
20240715052928 27 74 6.4 22.5 0.00 0.00 0.00 81 1024.0
20240715051913 27 53 8.0 22.5 0.00 0.00 0.00 82 1024.2
20240715050342 27 51 9.7 22.5 0.00 0.00 0.00 82 1024.2
20240715045841 27 55 9.7 22.5 0.00 0.00 0.00 82 1024.4
20240715045340 27 70 11.3 22.5 0.00 0.00 0.00 82 1024.8
20240715044840 27 74 8.0 22.5 0.00 0.00 0.00 82 1024.5
20240715043308 27 67 8.0 22.5 0.00 0.00 0.00 83 1024.7
20240715042808 27 65 11.3 25.7 0.00 0.00 0.00 83 1024.6
20240715042306 27 44 9.7 25.7 0.00 0.00 0.00 82 1024.9
20240715041807 27 59 9.7 20.9 0.00 0.00 0.00 83 1024.8
20240715041306 27 63 12.9 20.9 0.00 0.00 0.00 83 1024.9
20240715040806 27 72 6.4 22.5 0.00 0.00 0.00 83 1025.1
20240715040305 27 62 8.0 22.5 0.00 0.00 0.00 82 1025.1
20240715035805 27 46 9.7 22.5 0.00 0.00 0.00 82 1025.3
20240715035307 27 81 6.4 20.9 0.00 0.00 0.00 81 1025.2
20240715034804 27 43 9.7 20.9 0.00 0.00 0.00 80 1025.2
20240715034303 27 75 9.7 17.7 0.00 0.00 0.00 82 1025.0
20240715033247 27 40 8.0 17.7 0.00 0.00 0.00 82 1025.7
20240715032231 27 73 6.4 19.3 0.00 0.00 0.00 82 1025.6
20240715031215 27 41 8.0 19.3 0.00 0.00 0.00 82 1025.5
20240715030715 27 72 8.0 19.3 0.00 0.00 0.00 82 1025.8
20240715025659 27 64 6.4 19.3 0.00 0.00 0.00 82 1025.7
20240715025158 27 73 6.4 19.3 0.00 0.00 0.00 83 1025.8
20240715024658 27 45 6.4 19.3 0.00 0.00 0.00 83 1025.7
20240715024157 27 68 6.4 19.3 0.00 0.00 0.00 82 1025.6
20240715023657 27 64 6.4 19.3 0.00 0.00 0.00 82 1025.5
20240715023156 27 61 8.0 19.3 0.00 0.00 0.00 81 1025.4
20240715021624 27 50 9.7 19.3 0.00 0.00 0.00 83 1025.4
20240715021124 27 52 6.4 19.3 0.00 0.00 0.00 83 1025.6
20240715020108 27 48 9.7 19.3 0.00 0.00 0.00 84 1025.5
20240715015052 27 44 8.0 19.3 0.00 0.00 0.00 83 1025.5
20240715014551 27 55 8.0 19.3 0.00 0.00 0.00 83 1025.7
20240715013535 27 61 6.4 19.3 0.00 0.00 0.00 82 1025.4
20240715012004 27 55 8.0 19.3 0.00 0.00 0.00 82 1024.9
20240715011504 27 46 9.7 19.3 0.00 0.00 0.00 82 1025.2
20240715011003 27 85 3.2 19.3 0.00 0.00 0.00 81 1025.3
20240715010503 27 38 11.3 19.3 0.00 0.00 0.00 81 1025.2
20240715010003 27 67 9.7 20.9 0.00 0.00 0.00 82 1025.6
20240715005503 27 59 4.8 20.9 0.00 0.00 0.00 83 1025.6
20240715004447 27 70 6.4 19.3 0.00 0.00 0.00 83 1025.1
20240715003946 27 56 8.0 19.3 0.00 0.00 0.00 83 1025.0
20240715002931 27 67 9.7 25.7 0.00 0.00 0.00 82 1025.2
20240715002430 27 40 12.9 25.7 0.00 0.00 0.00 82 1025.0
20240715001930 27 54 9.7 24.1 0.00 0.00 0.00 82 1024.8
20240715001429 27 67 11.3 22.5 0.00 0.00 0.00 82 1024.8
20240715000929 27 43 9.7 22.5 0.00 0.00 0.00 82 1024.7
20240715000428 27 51 8.0 22.5 0.00 0.00 0.00 83 1024.6
20240714235928 27 56 8.0 22.5 0.00 0.00 0.00 82 1025.0
20240714235427 28 49 9.7 22.5 0.00 0.00 0.00 82 1024.7
20240714234927 28 49 11.3 24.1 0.00 0.00 0.00 82 1024.7
20240714234426 28 53 12.9 24.1 0.00 0.00 0.00 82 1024.6
20240714233926 28 40 11.3 24.1 0.00 0.00 0.00 82 1024.9
20240714232910 28 61 9.7 22.5 0.00 0.00 0.00 81 1024.6
20240714232409 28 81 9.7 22.5 0.00 0.00 0.00 82 1024.7
20240714231909 28 72 11.3 22.5 0.00 0.00 0.00 83 1024.6
20240714231408 28 78 8.0 22.5 0.00 0.00 0.00 83 1024.3
20240714230908 28 86 9.7 22.5 0.00 0.00 0.00 84 1024.3
20240714230407 28 48 6.4 19.3 0.00 0.00 0.00 84 1024.5
20240714225907 28 50 6.4 19.3 0.00 0.00 0.00 84 1024.3
20240714224851 28 15 11.3 22.5 0.00 0.00 0.00 85 1024.7
20240714224350 28 16 12.9 22.5 0.00 0.00 0.00 85 1023.9
20240714223850 28 9 12.9 22.5 0.00 0.00 0.00 85 1023.8
20240714223349 28 22 12.9 22.5 0.00 0.00 0.00 84 1024.0
20240714222328 28 14 11.3 20.9 0.00 0.00 0.00 84 1024.4
20240714221828 28 15 9.7 20.9 0.00 0.00 0.00 84 1024.4
20240714221328 28 5 12.9 20.9 0.00 0.00 0.00 84 1023.8
20240714220312 28 15 12.9 22.5 0.00 0.00 0.00 84 1023.7
20240714215812 28 12 12.9 22.5 0.00 0.00 0.00 84 1024.0
20240714215311 28 15 12.9 22.5 0.00 0.00 0.00 84 1023.5